Weather in Shumskiy

Russia / Irkutsk Oblast     54°49′54″N   99°07′55″E
temp.,
°C
wind,
m/s
gust,
m/s
humid.,
%
clouds,
%
prec.,
mm/h
press.,
hPa
HPBL,
m
21 june, mon
mon2123:00+16s11828 0.0 100119
02:00+14sse22845 0.0 100229
05:00+12ssw11896 0.0 100211
08:00+19nw3569100 0.0 1004598
11:00+20nnw4566100 0.0 10031088
14:00+16nnw6978100 0.1 1006605
17:00+11nw4885100 0.4 1009633
20:00+10nw3976100 0.6 1012806
22 june, tue
tue2223:00+9nnw257795 0.0 1013269
02:00+5wsw0096100 0.0 101610
05:00+5sw1196100 0.0 101410
08:00+10se1272100 0.0 1013287
11:00+15ese2250100 0.0 1011759
14:00+20ese3333100 0.0 10091303
17:00+21se4433100 0.0 10081492
20:00+17se3654100 0.0 1009366
23 june, wed
wed2323:00+11se2472100 0.0 100968
02:00+9se24839 0.0 100965
05:00+7se24965 0.0 100980
08:00+14se3673100 0.0 1007490
11:00+20s115456 0.0 1007967
14:00+23nnw454483 0.0 10071859
17:00+21nw674790 0.0 10091552
20:00+17nw486296 0.0 1012914
24 june, thu
thu2423:00+13nw2675100 0.0 1013237
02:00+11nnw118795 0.3 101221
05:00+11wnw1290100 0.1 101259
08:00+11nw2592100 0.3 1012288
11:00+11nnw3591100 0.1 1011448
14:00+13nnw2373100 0.2 1011733
17:00+17nne2257100 0.0 10091137
20:00+17nne1161100 0.0 1008655
25 june, fri
fri2523:00+10nnw11930 0.0 101010
02:00+8sw00965 0.0 100910
05:00+7s11960 0.0 101010
08:00+13se12774 0.0 1008310
11:00+20ese23532 0.0 1007938
14:00+25e2339100 0.0 10051669
17:00+26ene323581 0.0 10052032
20:00+23e245431 0.0 1006139